#timestamp,LO_Frequency,Hit 
1505106015.6,286046994.6,N
1505106035.5,286046990.3,N
1505106055.3,286046989.3,N
1505106075.1,286046994.2,N
1505106095.9,286046992.3,N
1505106115.7,286046993.9,N
1505106135.5,286046992.4,N
1505106155.4,286046989.7,N
1505106175.2,286046990.2,N
1505106195.0,286046994.4,N
1505106195.9,286046994.4,N
1505106215.8,286046992.8,N
1505106235.6,286046991.5,N
1505106255.4,286046992.0,N
1505106275.3,286046996.0,N
1505106295.1,286046992.6,N
1505106296.0,286046992.6,N
1505106315.8,286046996.3,N
1505106335.7,286046993.9,N
1505106355.5,286046994.0,N
1505106375.3,286046997.9,N
1505106395.1,286046997.0,N
1505106415.9,286046995.7,N
1505106435.7,286046992.1,N
1505106455.6,286046990.8,P
1505106475.4,286046998.7,N
1505106495.2,286046996.5,N
1505106515.0,286047002.1,N
1505106515.9,286047002.1,N
1505106535.8,286047003.2,N
1505106555.6,286047002.0,N
1505106575.4,286047000.0,N
1505106595.3,286046999.1,N
1505106615.1,286046992.4,N
1505106635.8,286046989.4,N
1505106655.7,286046993.1,N
1505106675.5,286046990.6,N
1505106695.3,286046988.9,N
1505106715.2,286046988.7,N
1505106735.9,286046996.2,N
1505106755.7,286046997.7,N
1505106775.5,286046999.9,N
1505106795.4,286047000.2,N
1505106815.2,286047003.2,N
1505106835.0,286047000.3,N
1505106835.9,286047000.3,N
1505106855.8,286046996.7,N
1505106875.6,286046995.0,N
1505106895.4,286047000.8,N
1505106915.3,286046999.4,N
1505106935.1,286046999.2,N
1505106936.0,286046999.2,N
1505106955.8,286047001.2,N
1505106975.7,286047002.3,N
1505106995.5,286047002.4,N
1505107015.3,286046997.1,N
1505107035.2,286046993.4,N
1505107055.9,286046996.1,N
1505107075.7,286046998.0,N
1505107095.6,286046999.6,N
1505107115.4,286047001.0,N
1505107135.2,286047000.9,N
1505107155.0,286047002.0,N
1505107156.0,286047002.0,N
1505107175.8,286047000.3,N
1505107195.6,286047002.2,N
1505107215.4,286046998.1,N
1505107235.3,286046998.6,N
1505107255.1,286046996.0,N
1505107275.8,286046996.4,N
1505107295.7,286046990.1,P
1505107315.5,286046988.6,N
1505107335.3,286046992.2,N
1505107355.2,286046995.2,N
1505107375.9,286046996.6,N
1505107395.7,286046992.3,N
1505107415.6,286046989.1,P
1505107435.4,286046992.0,P
1505107455.2,286046987.0,P
1505107475.1,286046988.1,P
1505107476.0,286046988.1,P
1505107495.8,286046995.8,P
1505107515.6,286046995.9,N
1505107535.5,286046993.3,N
1505107555.3,286046995.1,N
1505107575.1,286046993.8,N
1505107595.9,286046995.9,N
1505107615.7,286046994.8,N
1505107635.5,286046993.0,N
1505107655.4,286046994.5,N
1505107675.2,286046992.2,N
1505107695.0,286046990.6,P
1505107695.9,286046990.6,P
1505107715.8,286046999.8,N
1505107735.6,286047002.6,N
1505107755.4,286047004.0,N
1505107775.3,286047000.0,N
1505107795.1,286046999.3,N
1505107796.0,286046999.3,N
1505107815.8,286046999.9,N
1505107835.7,286047000.3,N
1505107855.5,286046998.5,N
1505107875.3,286046998.3,N
1505107895.1,286047000.5,N
1505107915.9,286046998.1,N
1505107935.7,286046995.2,N
1505107955.5,286046995.1,N
1505107975.4,286046996.3,N
1505107995.2,286046997.3,N
1505108015.0,286046998.8,N
1505108015.9,286046998.8,N
1505108035.8,286046999.4,N
1505108055.6,286046995.0,N
1505108075.4,286046999.2,N
1505108095.3,286046996.8,N
1505108115.1,286047002.7,N
1505108116.0,286047002.7,N
1505108135.8,286046998.7,N
1505108155.7,286046999.6,N
1505108175.5,286046997.6,N
1505108195.3,286046995.4,N
1505108215.1,286046997.2,N
1505108235.9,286046998.3,N
1505108255.7,286046999.4,N
1505108275.5,286046999.3,N
1505108295.4,286047002.1,N
1505108315.2,286047003.4,N
1505108335.0,286047003.8,N
1505108335.9,286047003.8,N
1505108355.8,286047003.2,N
1505108375.6,286047001.9,N
1505108395.4,286047001.4,N
1505108415.3,286046998.2,N
1505108435.1,286047000.8,N
1505108436.0,286047000.8,N
1505108455.8,286047003.7,N
1505108475.7,286047008.3,P
1505108495.5,286047010.0,N
1505108515.3,286047009.1,N
1505108535.2,286047011.0,N
1505108555.9,286047012.5,P
1505108575.7,286047007.0,N
1505108595.6,286047005.6,N
1505108615.4,286047001.4,N
1505108635.2,286047002.8,N
1505108655.1,286046998.9,N
1505108656.0,286046998.9,N
1505108675.8,286046995.2,N
1505108695.6,286046995.6,N
1505108715.4,286046999.7,N
1505108735.3,286047005.9,N
1505108755.1,286047005.4,N
1505108775.8,286047005.5,N
1505108795.7,286047000.6,N
1505108815.5,286047002.2,N
1505108835.3,286047005.1,N
1505108855.2,286047004.4,N
1505108875.9,286047002.0,N
1505108895.7,286046999.2,N
1505108915.6,286047000.9,N
1505108935.4,286046999.1,N
1505108955.2,286047002.7,N
1505108975.1,286047005.2,N
1505108976.0,286047005.2,N
1505108995.8,286047000.2,N
1505109015.6,286047000.8,N
1505109035.4,286046996.9,N
1505109055.3,286047000.8,N
1505109075.1,286046998.4,N
1505109095.8,286046998.5,N
1505109115.7,286046998.6,N
1505109135.5,286046996.8,N
1505109155.3,286046997.3,N
1505109175.2,286047000.7,N
1505109195.9,286046999.1,N
1505109215.7,286046999.4,N
1505109235.6,286046998.9,N
1505109255.4,286047001.1,N
1505109275.2,286046998.1,N
1505109295.0,286046998.1,N
1505109296.0,286046998.1,N
1505109315.8,286046998.5,N
1505109335.6,286046995.7,N
1505109355.4,286046995.3,N
1505109375.3,286046993.5,N
1505109395.1,286046994.1,N
1505109415.8,286046994.3,N
1505109435.7,286046991.3,P
1505109455.5,286046992.6,N
1505109475.3,286046997.1,N
1505109495.2,286046998.3,N
1505109515.0,286046999.6,N
1505109515.9,286046999.6,N
1505109535.7,286046999.2,N
1505109555.6,286046995.2,N
1505109575.4,286046994.0,N
1505109595.2,286046996.3,N
